Location: Gleizolles
(44.4833°N, 6.7667°E)
Time: 05:30:12
(UTC+00:00)

Transit 4A - Pass Details

Date: 01 July 2024
Orbit: 870 x 973 km, 66.8° (Epoch: 14 July)

Event Time Altitude Azimuth Distance (km) Brightness Sun altitude
Rises 19:56:40 0° 215° (SW) 3,457 10.8 -5.8°
Reaches altitude 10° 19:59:09 10° 216° (SW) 2,516 10.1 -6.2°
Maximum altitude 20:04:57 77° 303° (WNW) 896 8.0 -6.9°
Drops below altitude 10° 20:10:48 10° 30° (NNE) 2,531 10.4 -7.7°
Sets 20:13:18 0° 32° (NNE) 3,479 11.1 -8.0°
